Location: Bothwell
(42.3833°S, 147.0000°E)
Time: 09:38:34
(UTC+11:00)

Envisat - Pass Details

Date: 06 December 2022
Orbit: 763 x 765 km, 98.2° (Epoch: 28 January)

Event Time Altitude Azimuth Distance (km) Brightness Sun altitude
Rises 03:51:58 0° 34° (NE) 3,226 6.1 -14.3°
Reaches altitude 10° 03:54:21 10° 41° (NE) 2,308 5.4 -14.1°
Maximum altitude 03:59:07 42° 110° (ESE) 1,100 4.3 -13.5°
Drops below altitude 10° 04:03:56 10° 179° (S) 2,335 6.2 -12.9°
Sets 04:06:22 0° 186° (S) 3,269 6.9 -12.6°
